| time (UTC) | temp F | wind direction | speed MPH | gust MPH | rain 1hr in | rain 24hr in | rain mn in | humidity % | barometer mb |
| 20260509012533 | 60 | 37 | 0.0 | 0.0 | 0.00 | 0.03 | 0.03 | 90 | 1007.9 |
| 20260509012033 | 60 | 37 | 0.0 | 0.0 | 0.00 | 0.03 | 0.03 | 89 | 1007.9 |
| 20260509011531 | 61 | 37 | 0.0 | 0.0 | 0.00 | 0.03 | 0.03 | 89 | 1007.8 |
| 20260509011031 | 61 | 37 | 0.0 | 0.0 | 0.00 | 0.03 | 0.03 | 89 | 1007.8 |
| 20260509010530 | 61 | 37 | 0.0 | 0.0 | 0.00 | 0.03 | 0.03 | 89 | 1007.6 |
| 20260509010028 | 61 | 37 | 0.0 | 0.0 | 0.00 | 0.03 | 0.03 | 88 | 1007.6 |
| 20260509005527 | 61 | 37 | 0.0 | 0.0 | 0.00 | 0.03 | 0.03 | 88 | 1007.5 |
| 20260509005027 | 61 | 37 | 0.0 | 0.0 | 0.00 | 0.03 | 0.03 | 88 | 1007.3 |
| 20260509004526 | 62 | 37 | 0.0 | 0.0 | 0.00 | 0.03 | 0.03 | 87 | 1007.3 |
| 20260509004025 | 62 | 37 | 0.0 | 0.0 | 0.00 | 0.03 | 0.03 | 87 | 1007.4 |
| 20260509003523 | 62 | 37 | 0.0 | 0.0 | 0.00 | 0.03 | 0.03 | 87 | 1007.5 |
| 20260509003023 | 62 | 37 | 0.0 | 0.0 | 0.00 | 0.03 | 0.03 | 86 | 1007.2 |
| 20260509002522 | 62 | 37 | 0.0 | 0.0 | 0.00 | 0.03 | 0.03 | 86 | 1006.9 |
| 20260509002020 | 62 | 37 | 0.0 | 0.0 | 0.00 | 0.03 | 0.03 | 86 | 1006.8 |
| 20260509001520 | 62 | 37 | 0.0 | 0.0 | 0.00 | 0.03 | 0.03 | 86 | 1006.9 |
| 20260509001018 | 62 | 37 | 0.0 | 0.0 | 0.00 | 0.03 | 0.03 | 85 | 1007.0 |
| 20260509000517 | 62 | 37 | 0.0 | 0.0 | 0.00 | 0.03 | 0.03 | 85 | 1007.0 |
| 20260509000017 | 62 | 37 | 0.0 | 1.0 | 0.00 | 0.03 | 0.03 | 85 | 1007.0 |
| 20260508235515 | 62 | 348 | 0.0 | 0.0 | 0.00 | 0.03 | 0.03 | 85 | 1007.0 |
| 20260508235015 | 62 | 323 | 1.0 | 5.0 | 0.00 | 0.03 | 0.03 | 85 | 1007.0 |
| 20260508234514 | 62 | 358 | 3.0 | 5.0 | 0.00 | 0.03 | 0.03 | 86 | 1007.1 |
| 20260508234012 | 62 | 358 | 3.0 | 6.0 | 0.00 | 0.03 | 0.03 | 89 | 1007.1 |
| 20260508233511 | 62 | 334 | 1.0 | 3.0 | 0.00 | 0.03 | 0.03 | 89 | 1007.1 |
| 20260508233010 | 61 | 215 | 0.0 | 0.0 | 0.00 | 0.03 | 0.03 | 89 | 1006.9 |
| 20260508232509 | 61 | 215 | 0.0 | 2.0 | 0.00 | 0.03 | 0.03 | 89 | 1006.6 |
| 20260508232009 | 61 | 272 | 0.0 | 3.0 | 0.00 | 0.03 | 0.03 | 90 | 1006.5 |
| 20260508231506 | 61 | 181 | 4.0 | 8.0 | 0.00 | 0.03 | 0.03 | 92 | 1006.4 |
| 20260508231005 | 61 | 196 | 1.0 | 5.0 | 0.01 | 0.03 | 0.03 | 94 | 1006.4 |
| 20260508230505 | 61 | 191 | 0.0 | 4.0 | 0.01 | 0.03 | 0.03 | 95 | 1006.5 |
| 20260508230004 | 60 | 198 | 2.0 | 3.0 | 0.01 | 0.03 | 0.03 | 95 | 1006.6 |
| 20260508225503 | 60 | 7 | 0.0 | 2.0 | 0.01 | 0.03 | 0.03 | 95 | 1006.8 |
| 20260508225001 | 60 | 49 | 0.0 | 4.0 | 0.01 | 0.03 | 0.03 | 95 | 1006.6 |
| 20260508224459 | 60 | 74 | 1.0 | 4.0 | 0.01 | 0.03 | 0.03 | 95 | 1006.5 |
| 20260508223959 | 60 | 165 | 0.0 | 4.0 | 0.01 | 0.03 | 0.03 | 95 | 1006.4 |
| 20260508223458 | 60 | 49 | 2.0 | 3.0 | 0.01 | 0.03 | 0.03 | 95 | 1006.6 |
| 20260508222956 | 60 | 360 | 1.0 | 5.0 | 0.01 | 0.03 | 0.03 | 95 | 1006.5 |
| 20260508222455 | 59 | 105 | 1.0 | 4.0 | 0.02 | 0.03 | 0.03 | 95 | 1006.8 |
| 20260508221954 | 59 | 97 | 3.0 | 3.0 | 0.02 | 0.03 | 0.03 | 94 | 1007.0 |
| 20260508221453 | 59 | 133 | 1.0 | 3.0 | 0.02 | 0.03 | 0.03 | 93 | 1007.3 |
| 20260508220952 | 59 | 26 | 0.0 | 1.0 | 0.01 | 0.02 | 0.02 | 92 | 1007.6 |
| 20260508220451 | 59 | 47 | 2.0 | 4.0 | 0.01 | 0.02 | 0.02 | 92 | 1007.7 |
| 20260508215950 | 59 | 54 | 0.0 | 2.0 | 0.02 | 0.02 | 0.02 | 92 | 1007.8 |
| 20260508215449 | 59 | 23 | 2.0 | 5.0 | 0.02 | 0.02 | 0.02 | 92 | 1008.0 |
| 20260508214949 | 60 | 315 | 2.0 | 6.0 | 0.02 | 0.02 | 0.02 | 91 | 1008.1 |
| 20260508214447 | 60 | 4 | 4.0 | 7.0 | 0.02 | 0.02 | 0.02 | 91 | 1008.2 |
| 20260508213947 | 60 | 1 | 2.0 | 7.0 | 0.02 | 0.02 | 0.02 | 91 | 1008.3 |
| 20260508213446 | 60 | 1 | 6.0 | 7.0 | 0.02 | 0.02 | 0.02 | 89 | 1008.4 |
| 20260508212944 | 61 | 305 | 0.0 | 2.0 | 0.02 | 0.02 | 0.02 | 87 | 1008.7 |
| 20260508212443 | 61 | 340 | 0.0 | 3.0 | 0.01 | 0.01 | 0.01 | 87 | 1008.7 |
| 20260508211942 | 62 | 315 | 0.0 | 3.0 | 0.01 | 0.01 | 0.01 | 86 | 1008.9 |
| 20260508211441 | 62 | 310 | 1.0 | 4.0 | 0.01 | 0.01 | 0.01 | 85 | 1008.9 |
| 20260508210940 | 62 | 351 | 0.0 | 2.0 | 0.01 | 0.01 | 0.01 | 84 | 1008.3 |
| 20260508210439 | 63 | 352 | 0.0 | 3.0 | 0.01 | 0.01 | 0.01 | 81 | 1008.3 |
| 20260508205938 | 63 | 326 | 0.0 | 2.0 | 0.00 | 0.00 | 0.00 | 80 | 1008.5 |
| 20260508205437 | 63 | 298 | 0.0 | 2.0 | 0.00 | 0.00 | 0.00 | 78 | 1008.6 |
| 20260508204937 | 64 | 4 | 0.0 | 2.0 | 0.00 | 0.00 | 0.00 | 77 | 1008.6 |
| 20260508204435 | 65 | 329 | 2.0 | 2.0 | 0.00 | 0.00 | 0.00 | 73 | 1008.5 |
| 20260508203935 | 65 | 243 | 0.0 | 2.0 | 0.00 | 0.00 | 0.00 | 74 | 1008.7 |
| 20260508203433 | 64 | 4 | 0.0 | 4.0 | 0.00 | 0.00 | 0.00 | 76 | 1008.8 |
| 20260508202933 | 65 | 352 | 1.0 | 3.0 | 0.00 | 0.00 | 0.00 | 73 | 1008.0 |
| 20260508202432 | 65 | 9 | 3.0 | 3.0 | 0.00 | 0.00 | 0.00 | 72 | 1007.9 |
| 20260508201930 | 65 | 348 | 0.0 | 5.0 | 0.00 | 0.00 | 0.00 | 72 | 1008.0 |
| 20260508201429 | 65 | 206 | 0.0 | 0.0 | 0.00 | 0.00 | 0.00 | 71 | 1008.2 |
| 20260508200928 | 66 | 206 | 0.0 | 5.0 | 0.00 | 0.00 | 0.00 | 70 | 1008.7 |
| 20260508200428 | 65 | 168 | 0.0 | 3.0 | 0.00 | 0.00 | 0.00 | 70 | 1008.7 |
| 20260508195926 | 66 | 240 | 0.0 | 3.0 | 0.00 | 0.00 | 0.00 | 69 | 1008.8 |
| 20260508195426 | 65 | 237 | 0.0 | 5.0 | 0.00 | 0.00 | 0.00 | 69 | 1008.7 |
| 20260508194924 | 65 | 230 | 1.0 | 2.0 | 0.00 | 0.00 | 0.00 | 69 | 1008.7 |
| 20260508194423 | 65 | 154 | 0.0 | 3.0 | 0.00 | 0.00 | 0.00 | 69 | 1008.5 |
| 20260508193923 | 65 | 137 | 0.0 | 3.0 | 0.00 | 0.00 | 0.00 | 71 | 1008.3 |
| 20260508193420 | 65 | 104 | 0.0 | 0.0 | 0.00 | 0.00 | 0.00 | 70 | 1008.2 |
| 20260508192920 | 65 | 104 | 0.0 | 4.0 | 0.00 | 0.00 | 0.00 | 71 | 1008.3 |
| 20260508192417 | 65 | 180 | 2.0 | 2.0 | 0.00 | 0.00 | 0.00 | 71 | 1008.3 |
| 20260508191916 | 65 | 237 | 0.0 | 0.0 | 0.00 | 0.00 | 0.00 | 69 | 1008.5 |
| 20260508191416 | 65 | 237 | 0.0 | 3.0 | 0.00 | 0.00 | 0.00 | 68 | 1008.9 |
| 20260508190914 | 65 | 189 | 0.0 | 5.0 | 0.00 | 0.00 | 0.00 | 69 | 1008.7 |
| 20260508190413 | 65 | 209 | 0.0 | 5.0 | 0.00 | 0.00 | 0.00 | 68 | 1008.7 |
| 20260508185911 | 65 | 175 | 0.0 | 4.0 | 0.00 | 0.00 | 0.00 | 69 | 1008.7 |
| 20260508185410 | 65 | 239 | 0.0 | 0.0 | 0.00 | 0.00 | 0.00 | 69 | 1008.7 |
| 20260508184910 | 64 | 239 | 0.0 | 0.0 | 0.00 | 0.00 | 0.00 | 69 | 1008.6 |
| 20260508184409 | 64 | 239 | 0.0 | 0.0 | 0.00 | 0.00 | 0.00 | 68 | 1008.6 |
| 20260508183907 | 64 | 239 | 0.0 | 0.0 | 0.00 | 0.00 | 0.00 | 69 | 1008.8 |
| 20260508183405 | 64 | 239 | 0.0 | 0.0 | 0.00 | 0.00 | 0.00 | 68 | 1008.9 |
| 20260508182903 | 64 | 219 | 1.0 | 6.0 | 0.00 | 0.00 | 0.00 | 68 | 1009.2 |
| 20260508182402 | 64 | 198 | 1.0 | 2.0 | 0.00 | 0.00 | 0.00 | 67 | 1009.3 |
| 20260508181902 | 64 | 181 | 0.0 | 3.0 | 0.00 | 0.00 | 0.00 | 68 | 1009.3 |
| 20260508181400 | 65 | 220 | 1.0 | 2.0 | 0.00 | 0.00 | 0.00 | 67 | 1009.3 |
| 20260508180859 | 64 | 229 | 2.0 | 5.0 | 0.00 | 0.00 | 0.00 | 68 | 1009.3 |
| 20260508180357 | 64 | 232 | 1.0 | 3.0 | 0.00 | 0.00 | 0.00 | 69 | 1009.3 |
| 20260508175856 | 64 | 192 | 0.0 | 1.0 | 0.00 | 0.00 | 0.00 | 69 | 1009.3 |
| 20260508175355 | 64 | 209 | 0.0 | 2.0 | 0.00 | 0.00 | 0.00 | 69 | 1009.2 |
| 20260508174852 | 64 | 205 | 0.0 | 3.0 | 0.00 | 0.00 | 0.00 | 70 | 1009.3 |
| 20260508174351 | 63 | 226 | 1.0 | 1.0 | 0.00 | 0.00 | 0.00 | 70 | 1009.2 |
| 20260508173851 | 63 | 240 | 0.0 | 2.0 | 0.00 | 0.00 | 0.00 | 70 | 1009.2 |
| 20260508173349 | 63 | 184 | 0.0 | 1.0 | 0.00 | 0.00 | 0.00 | 70 | 1009.3 |
| 20260508172848 | 63 | 239 | 1.0 | 8.0 | 0.00 | 0.00 | 0.00 | 70 | 1009.3 |
| 20260508172347 | 63 | 254 | 2.0 | 3.0 | 0.00 | 0.00 | 0.00 | 70 | 1009.1 |
| 20260508171846 | 63 | 181 | 0.0 | 4.0 | 0.00 | 0.00 | 0.00 | 71 | 1009.1 |
| 20260508171345 | 62 | 219 | 1.0 | 2.0 | 0.00 | 0.00 | 0.00 | 72 | 1008.8 |
| 20260508170845 | 62 | 49 | 1.0 | 2.0 | 0.00 | 0.00 | 0.00 | 71 | 1008.7 |
| 20260508170343 | 62 | 248 | 0.0 | 2.0 | 0.00 | 0.00 | 0.00 | 71 | 1009.3 |
| 20260508165843 | 62 | 177 | 0.0 | 0.0 | 0.00 | 0.00 | 0.00 | 71 | 1009.0 |
| 20260508165341 | 62 | 177 | 0.0 | 1.0 | 0.00 | 0.00 | 0.00 | 71 | 1009.4 |
| 20260508164840 | 62 | 222 | 0.0 | 2.0 | 0.00 | 0.00 | 0.00 | 71 | 1009.7 |
| 20260508164340 | 62 | 215 | 0.0 | 0.0 | 0.00 | 0.00 | 0.00 | 70 | 1009.9 |
| 20260508163838 | 62 | 215 | 0.0 | 2.0 | 0.00 | 0.00 | 0.00 | 69 | 1009.9 |
| 20260508163337 | 62 | 240 | 1.0 | 4.0 | 0.00 | 0.00 | 0.00 | 69 | 1009.8 |
| 20260508162836 | 62 | 233 | 0.0 | 5.0 | 0.00 | 0.00 | 0.00 | 69 | 1009.8 |
| 20260508162336 | 62 | 240 | 0.0 | 1.0 | 0.00 | 0.00 | 0.00 | 69 | 1009.8 |
| 20260508161834 | 62 | 240 | 1.0 | 9.0 | 0.00 | 0.00 | 0.00 | 69 | 1009.7 |
| 20260508161334 | 62 | 223 | 3.0 | 6.0 | 0.00 | 0.00 | 0.00 | 68 | 1009.6 |
| 20260508160832 | 62 | 247 | 1.0 | 4.0 | 0.00 | 0.00 | 0.00 | 69 | 1009.4 |
| 20260508160331 | 62 | 272 | 0.0 | 3.0 | 0.00 | 0.00 | 0.00 | 70 | 1009.6 |
| 20260508155831 | 62 | 191 | 0.0 | 8.0 | 0.00 | 0.00 | 0.00 | 70 | 1009.7 |
| 20260508155329 | 62 | 216 | 0.0 | 7.0 | 0.00 | 0.00 | 0.00 | 70 | 1009.6 |
| 20260508154828 | 61 | 208 | 2.0 | 4.0 | 0.00 | 0.00 | 0.00 | 71 | 1009.4 |
| 20260508154328 | 61 | 184 | 0.0 | 4.0 | 0.00 | 0.00 | 0.00 | 70 | 1009.6 |
| 20260508153826 | 61 | 187 | 0.0 | 2.0 | 0.00 | 0.00 | 0.00 | 69 | 1009.6 |
| 20260508153325 | 61 | 202 | 0.0 | 2.0 | 0.00 | 0.00 | 0.00 | 70 | 1009.7 |
| 20260508152825 | 61 | 226 | 0.0 | 4.0 | 0.00 | 0.00 | 0.00 | 70 | 1009.7 |
| 20260508152324 | 61 | 230 | 1.0 | 3.0 | 0.00 | 0.00 | 0.00 | 71 | 1009.7 |
| 20260508151822 | 61 | 201 | 0.0 | 0.0 | 0.00 | 0.00 | 0.00 | 71 | 1009.7 |
| 20260508151321 | 60 | 201 | 0.0 | 2.0 | 0.00 | 0.00 | 0.00 | 70 | 1009.8 |
| 20260508150820 | 60 | 171 | 0.0 | 0.0 | 0.00 | 0.00 | 0.00 | 70 | 1010.0 |
| 20260508150320 | 60 | 171 | 0.0 | 2.0 | 0.00 | 0.00 | 0.00 | 69 | 1010.0 |
| 20260508145818 | 60 | 247 | 0.0 | 6.0 | 0.00 | 0.00 | 0.00 | 69 | 1010.0 |
| 20260508145317 | 60 | 241 | 0.0 | 5.0 | 0.00 | 0.00 | 0.00 | 69 | 1010.0 |
| 20260508144816 | 60 | 225 | 0.0 | 5.0 | 0.00 | 0.00 | 0.00 | 69 | 1010.0 |
| 20260508144316 | 60 | 188 | 0.0 | 4.0 | 0.00 | 0.00 | 0.00 | 69 | 1010.0 |
| 20260508143815 | 60 | 203 | 1.0 | 7.0 | 0.00 | 0.00 | 0.00 | 69 | 1009.9 |
| 20260508143314 | 60 | 234 | 0.0 | 5.0 | 0.00 | 0.00 | 0.00 | 71 | 1009.9 |
| 20260508142813 | 59 | 239 | 0.0 | 8.0 | 0.00 | 0.00 | 0.00 | 69 | 1010.0 |
| 20260508142311 | 59 | 275 | 2.0 | 5.0 | 0.00 | 0.00 | 0.00 | 70 | 1009.8 |
| 20260508141811 | 59 | 167 | 4.0 | 5.0 | 0.00 | 0.00 | 0.00 | 70 | 1009.7 |
| 20260508141309 | 59 | 188 | 3.0 | 4.0 | 0.00 | 0.00 | 0.00 | 70 | 1009.7 |
| 20260508140809 | 59 | 222 | 6.0 | 11.0 | 0.00 | 0.00 | 0.00 | 70 | 1009.6 |
| 20260508140307 | 59 | 206 | 6.0 | 10.0 | 0.00 | 0.00 | 0.00 | 70 | 1009.4 |
| 20260508135806 | 59 | 208 | 7.0 | 7.0 | 0.00 | 0.00 | 0.00 | 70 | 1009.6 |
| 20260508135306 | 59 | 234 | 2.0 | 9.0 | 0.00 | 0.00 | 0.00 | 69 | 1009.4 |
| 20260508134804 | 59 | 227 | 2.0 | 10.0 | 0.00 | 0.00 | 0.00 | 71 | 1009.4 |
| 20260508134303 | 59 | 194 | 0.0 | 8.0 | 0.00 | 0.00 | 0.00 | 70 | 1009.4 |
| 20260508133802 | 59 | 201 | 1.0 | 6.0 | 0.00 | 0.00 | 0.00 | 70 | 1009.7 |
| 20260508133301 | 58 | 205 | 0.0 | 12.0 | 0.00 | 0.00 | 0.00 | 71 | 1009.7 |
| 20260508132800 | 58 | 189 | 4.0 | 7.0 | 0.00 | 0.00 | 0.00 | 71 | 1009.7 |
| 20260508132259 | 58 | 188 | 3.0 | 10.0 | 0.00 | 0.00 | 0.00 | 71 | 1009.7 |
| 20260508131758 | 58 | 260 | 2.0 | 9.0 | 0.00 | 0.00 | 0.00 | 71 | 1009.7 |
| 20260508131258 | 58 | 206 | 1.0 | 8.0 | 0.00 | 0.00 | 0.00 | 71 | 1009.7 |
| 20260508130756 | 58 | 203 | 3.0 | 10.0 | 0.00 | 0.00 | 0.00 | 71 | 1009.7 |
| 20260508130256 | 58 | 246 | 2.0 | 10.0 | 0.00 | 0.00 | 0.00 | 70 | 1009.7 |
| 20260508125754 | 58 | 222 | 2.0 | 6.0 | 0.00 | 0.00 | 0.00 | 70 | 1009.8 |
| 20260508125253 | 58 | 203 | 5.0 | 12.0 | 0.00 | 0.00 | 0.00 | 70 | 1009.7 |
| 20260508124752 | 58 | 196 | 7.0 | 12.0 | 0.00 | 0.00 | 0.00 | 70 | 1009.7 |
| 20260508124252 | 58 | 129 | 2.0 | 7.0 | 0.00 | 0.00 | 0.00 | 70 | 1009.7 |
| 20260508123751 | 58 | 208 | 0.0 | 8.0 | 0.00 | 0.00 | 0.00 | 70 | 1009.7 |
| 20260508123249 | 58 | 182 | 4.0 | 9.0 | 0.00 | 0.00 | 0.00 | 70 | 1009.6 |
| 20260508122749 | 58 | 212 | 6.0 | 7.0 | 0.00 | 0.00 | 0.00 | 70 | 1009.7 |
| 20260508122247 | 58 | 213 | 1.0 | 4.0 | 0.00 | 0.00 | 0.00 | 69 | 1009.7 |
| 20260508121746 | 58 | 226 | 2.0 | 2.0 | 0.00 | 0.00 | 0.00 | 69 | 1009.7 |
| 20260508121246 | 58 | 175 | 2.0 | 4.0 | 0.00 | 0.00 | 0.00 | 68 | 1009.6 |
| 20260508120744 | 58 | 229 | 2.0 | 7.0 | 0.00 | 0.00 | 0.00 | 68 | 1009.3 |
| 20260508120243 | 58 | 170 | 2.0 | 6.0 | 0.00 | 0.00 | 0.00 | 68 | 1009.2 |
| 20260508115742 | 58 | 234 | 2.0 | 6.0 | 0.00 | 0.00 | 0.00 | 67 | 1009.3 |
| 20260508115242 | 58 | 233 | 2.0 | 10.0 | 0.00 | 0.00 | 0.00 | 67 | 1009.1 |
| 20260508114741 | 59 | 115 | 0.0 | 5.0 | 0.00 | 0.00 | 0.00 | 67 | 1009.0 |
| 20260508114240 | 59 | 208 | 2.0 | 9.0 | 0.00 | 0.00 | 0.00 | 66 | 1009.1 |
| 20260508113738 | 59 | 241 | 4.0 | 10.0 | 0.00 | 0.00 | 0.00 | 66 | 1008.9 |
| 20260508113238 | 59 | 206 | 1.0 | 8.0 | 0.00 | 0.00 | 0.00 | 66 | 1008.7 |
| 20260508112737 | 58 | 170 | 1.0 | 7.0 | 0.00 | 0.00 | 0.00 | 66 | 1008.9 |
| 20260508112236 | 58 | 258 | 4.0 | 8.0 | 0.00 | 0.00 | 0.00 | 66 | 1008.7 |
| 20260508111734 | 58 | 182 | 8.0 | 10.0 | 0.00 | 0.00 | 0.00 | 66 | 1008.7 |
| 20260508111234 | 58 | 185 | 6.0 | 9.0 | 0.00 | 0.00 | 0.00 | 67 | 1008.6 |
| 20260508110732 | 58 | 181 | 1.0 | 9.0 | 0.00 | 0.00 | 0.00 | 67 | 1008.5 |
| 20260508110231 | 58 | 226 | 4.0 | 12.0 | 0.00 | 0.00 | 0.00 | 67 | 1008.6 |
| 20260508105730 | 58 | 123 | 1.0 | 10.0 | 0.00 | 0.00 | 0.00 | 68 | 1008.6 |
| 20260508105229 | 58 | 130 | 1.0 | 9.0 | 0.00 | 0.00 | 0.00 | 67 | 1008.8 |
| 20260508104728 | 58 | 232 | 2.0 | 11.0 | 0.00 | 0.00 | 0.00 | 67 | 1008.8 |
| 20260508104227 | 58 | 246 | 1.0 | 12.0 | 0.00 | 0.00 | 0.00 | 67 | 1008.8 |
| 20260508103726 | 58 | 217 | 1.0 | 7.0 | 0.00 | 0.00 | 0.00 | 67 | 1008.6 |
| 20260508103225 | 58 | 196 | 0.0 | 10.0 | 0.00 | 0.00 | 0.00 | 67 | 1008.6 |
| 20260508102724 | 59 | 199 | 5.0 | 12.0 | 0.00 | 0.00 | 0.00 | 67 | 1008.7 |
| 20260508102223 | 59 | 222 | 4.0 | 10.0 | 0.00 | 0.00 | 0.00 | 66 | 1008.6 |
| 20260508101722 | 59 | 209 | 1.0 | 10.0 | 0.00 | 0.00 | 0.00 | 66 | 1008.7 |
| 20260508101221 | 59 | 253 | 2.0 | 11.0 | 0.00 | 0.00 | 0.00 | 66 | 1008.7 |
| 20260508100720 | 59 | 194 | 7.0 | 8.0 | 0.00 | 0.00 | 0.00 | 65 | 1008.6 |
| 20260508100219 | 59 | 216 | 0.0 | 10.0 | 0.00 | 0.00 | 0.00 | 65 | 1008.7 |
| 20260508095718 | 59 | 172 | 1.0 | 9.0 | 0.00 | 0.00 | 0.00 | 64 | 1008.6 |
| 20260508095217 | 59 | 220 | 0.0 | 8.0 | 0.00 | 0.00 | 0.00 | 64 | 1008.6 |
| 20260508094716 | 59 | 248 | 0.0 | 7.0 | 0.00 | 0.00 | 0.00 | 64 | 1008.6 |
| 20260508094215 | 59 | 199 | 4.0 | 11.0 | 0.00 | 0.00 | 0.00 | 64 | 1008.5 |
| 20260508093714 | 59 | 191 | 1.0 | 15.0 | 0.00 | 0.00 | 0.00 | 64 | 1008.6 |
| 20260508093213 | 59 | 212 | 2.0 | 12.0 | 0.00 | 0.00 | 0.00 | 65 | 1008.4 |
| 20260508092712 | 59 | 236 | 3.0 | 9.0 | 0.00 | 0.00 | 0.00 | 65 | 1008.5 |
| 20260508092211 | 59 | 253 | 6.0 | 10.0 | 0.00 | 0.00 | 0.00 | 65 | 1008.6 |
| 20260508091710 | 59 | 254 | 5.0 | 10.0 | 0.00 | 0.00 | 0.00 | 65 | 1008.6 |
| 20260508091209 | 59 | 198 | 2.0 | 9.0 | 0.00 | 0.00 | 0.00 | 66 | 1008.6 |
| 20260508090708 | 59 | 258 | 2.0 | 11.0 | 0.00 | 0.00 | 0.00 | 66 | 1008.5 |
| 20260508090207 | 58 | 178 | 3.0 | 11.0 | 0.00 | 0.00 | 0.00 | 65 | 1008.5 |
| 20260508085706 | 58 | 230 | 3.0 | 9.0 | 0.00 | 0.00 | 0.00 | 66 | 1008.6 |
| 20260508085205 | 58 | 201 | 0.0 | 12.0 | 0.00 | 0.00 | 0.00 | 66 | 1008.7 |
| 20260508084704 | 58 | 215 | 3.0 | 12.0 | 0.00 | 0.00 | 0.00 | 66 | 1008.6 |
| 20260508084203 | 58 | 244 | 3.0 | 12.0 | 0.00 | 0.00 | 0.00 | 66 | 1008.6 |
| 20260508083702 | 58 | 187 | 4.0 | 8.0 | 0.00 | 0.00 | 0.00 | 66 | 1008.7 |
| 20260508083201 | 58 | 199 | 3.0 | 6.0 | 0.00 | 0.00 | 0.00 | 67 | 1008.7 |
| 20260508082700 | 58 | 164 | 3.0 | 8.0 | 0.00 | 0.00 | 0.00 | 67 | 1008.8 |
| 20260508082159 | 58 | 177 | 6.0 | 8.0 | 0.00 | 0.00 | 0.00 | 66 | 1008.9 |
| 20260508081658 | 58 | 254 | 2.0 | 12.0 | 0.00 | 0.00 | 0.00 | 66 | 1009.0 |
| 20260508081157 | 58 | 225 | 0.0 | 7.0 | 0.00 | 0.00 | 0.00 | 66 | 1009.0 |
| 20260508080656 | 58 | 220 | 1.0 | 10.0 | 0.00 | 0.00 | 0.00 | 66 | 1009.0 |
| 20260508080155 | 58 | 119 | 1.0 | 8.0 | 0.00 | 0.00 | 0.00 | 66 | 1009.0 |
| 20260508075654 | 58 | 202 | 7.0 | 9.0 | 0.00 | 0.00 | 0.00 | 66 | 1009.1 |
| 20260508075153 | 58 | 195 | 4.0 | 10.0 | 0.00 | 0.00 | 0.00 | 66 | 1009.2 |
| 20260508074652 | 58 | 210 | 1.0 | 4.0 | 0.00 | 0.00 | 0.00 | 66 | 1009.3 |
| 20260508074151 | 58 | 237 | 1.0 | 10.0 | 0.00 | 0.00 | 0.00 | 66 | 1009.4 |
| 20260508073650 | 58 | 219 | 2.0 | 7.0 | 0.00 | 0.00 | 0.00 | 65 | 1009.6 |
| 20260508073149 | 59 | 198 | 1.0 | 10.0 | 0.00 | 0.00 | 0.00 | 65 | 1009.6 |
| 20260508072648 | 59 | 188 | 5.0 | 7.0 | 0.00 | 0.00 | 0.00 | 65 | 1009.6 |
| 20260508072147 | 59 | 241 | 5.0 | 10.0 | 0.00 | 0.00 | 0.00 | 65 | 1009.6 |
| 20260508071646 | 59 | 216 | 2.0 | 7.0 | 0.00 | 0.00 | 0.00 | 64 | 1009.6 |
| 20260508071145 | 59 | 206 | 2.0 | 11.0 | 0.00 | 0.00 | 0.00 | 64 | 1009.7 |
| 20260508070644 | 59 | 163 | 2.0 | 10.0 | 0.00 | 0.00 | 0.00 | 65 | 1009.7 |
| 20260508070143 | 59 | 232 | 2.0 | 10.0 | 0.00 | 0.00 | 0.00 | 65 | 1009.8 |
| 20260508065642 | 59 | 215 | 3.0 | 9.0 | 0.00 | 0.00 | 0.00 | 64 | 1009.9 |
| 20260508065141 | 59 | 185 | 6.0 | 12.0 | 0.00 | 0.00 | 0.00 | 63 | 1009.9 |
| 20260508064640 | 59 | 212 | 5.0 | 9.0 | 0.00 | 0.00 | 0.00 | 64 | 1010.1 |
| 20260508064139 | 59 | 175 | 4.0 | 12.0 | 0.00 | 0.00 | 0.00 | 63 | 1010.1 |
| 20260508063638 | 59 | 194 | 5.0 | 10.0 | 0.00 | 0.00 | 0.00 | 63 | 1010.2 |
| 20260508063137 | 59 | 247 | 3.0 | 10.0 | 0.00 | 0.00 | 0.00 | 62 | 1010.2 |
| 20260508062636 | 60 | 101 | 2.0 | 7.0 | 0.00 | 0.00 | 0.00 | 62 | 1010.3 |
| 20260508062135 | 60 | 180 | 0.0 | 11.0 | 0.00 | 0.00 | 0.00 | 62 | 1010.3 |
| 20260508061634 | 60 | 237 | 1.0 | 6.0 | 0.00 | 0.00 | 0.00 | 62 | 1010.3 |
| 20260508061133 | 60 | 194 | 1.0 | 11.0 | 0.00 | 0.00 | 0.00 | 62 | 1010.4 |
| 20260508060632 | 60 | 130 | 3.0 | 10.0 | 0.00 | 0.00 | 0.00 | 61 | 1010.3 |
| 20260508060131 | 60 | 220 | 4.0 | 11.0 | 0.00 | 0.00 | 0.00 | 61 | 1010.4 |
| 20260508055630 | 60 | 209 | 6.0 | 9.0 | 0.00 | 0.00 | 0.00 | 61 | 1010.4 |
| 20260508055129 | 60 | 226 | 0.0 | 12.0 | 0.00 | 0.00 | 0.00 | 61 | 1010.4 |
| 20260508054628 | 60 | 240 | 5.0 | 8.0 | 0.00 | 0.00 | 0.00 | 60 | 1010.4 |
| 20260508054127 | 60 | 227 | 1.0 | 15.0 | 0.00 | 0.00 | 0.00 | 61 | 1010.3 |
| 20260508053626 | 60 | 284 | 1.0 | 13.0 | 0.00 | 0.00 | 0.00 | 61 | 1010.3 |
| 20260508053125 | 60 | 217 | 1.0 | 9.0 | 0.00 | 0.00 | 0.00 | 61 | 1010.3 |
| 20260508052624 | 61 | 267 | 0.0 | 7.0 | 0.00 | 0.00 | 0.00 | 60 | 1010.4 |
| 20260508052123 | 61 | 181 | 6.0 | 8.0 | 0.00 | 0.00 | 0.00 | 60 | 1010.4 |
| 20260508051622 | 61 | 132 | 1.0 | 13.0 | 0.00 | 0.00 | 0.00 | 60 | 1010.4 |
| 20260508051121 | 61 | 213 | 2.0 | 16.0 | 0.00 | 0.00 | 0.00 | 61 | 1010.4 |
| 20260508050620 | 61 | 215 | 6.0 | 8.0 | 0.00 | 0.00 | 0.00 | 60 | 1010.5 |
| 20260508050119 | 61 | 158 | 3.0 | 13.0 | 0.00 | 0.00 | 0.00 | 60 | 1010.5 |
| 20260508045618 | 61 | 272 | 2.0 | 13.0 | 0.00 | 0.00 | 0.00 | 60 | 1010.5 |
| 20260508045117 | 61 | 212 | 3.0 | 12.0 | 0.00 | 0.00 | 0.00 | 60 | 1010.5 |
| 20260508044616 | 61 | 216 | 7.0 | 12.0 | 0.00 | 0.00 | 0.00 | 60 | 1010.5 |
| 20260508044115 | 61 | 180 | 0.0 | 11.0 | 0.00 | 0.00 | 0.00 | 60 | 1010.6 |
| 20260508043615 | 61 | 126 | 2.0 | 13.0 | 0.00 | 0.00 | 0.00 | 60 | 1010.7 |
| 20260508043113 | 61 | 187 | 3.0 | 11.0 | 0.00 | 0.00 | 0.00 | 60 | 1010.7 |
| 20260508042612 | 61 | 191 | 5.0 | 10.0 | 0.00 | 0.00 | 0.00 | 60 | 1010.7 |
| 20260508042111 | 61 | 201 | 3.0 | 6.0 | 0.00 | 0.00 | 0.00 | 60 | 1010.7 |
| 20260508041610 | 61 | 136 | 1.0 | 10.0 | 0.00 | 0.00 | 0.00 | 59 | 1010.7 |
| 20260508041109 | 61 | 212 | 0.0 | 9.0 | 0.00 | 0.00 | 0.00 | 59 | 1010.8 |
| 20260508040608 | 61 | 171 | 2.0 | 13.0 | 0.00 | 0.00 | 0.00 | 60 | 1010.7 |
| 20260508040107 | 61 | 210 | 0.0 | 10.0 | 0.00 | 0.00 | 0.00 | 60 | 1010.8 |
| 20260508035606 | 61 | 106 | 1.0 | 11.0 | 0.00 | 0.00 | 0.00 | 59 | 1010.8 |
| 20260508035105 | 61 | 164 | 4.0 | 12.0 | 0.00 | 0.00 | 0.00 | 58 | 1010.8 |
| 20260508034604 | 62 | 92 | 1.0 | 7.0 | 0.00 | 0.00 | 0.00 | 58 | 1010.8 |
| 20260508034104 | 62 | 192 | 3.0 | 11.0 | 0.00 | 0.00 | 0.00 | 58 | 1010.8 |
| 20260508033602 | 62 | 202 | 3.0 | 7.0 | 0.00 | 0.00 | 0.00 | 58 | 1010.8 |
| 20260508033101 | 62 | 220 | 0.0 | 8.0 | 0.00 | 0.00 | 0.00 | 57 | 1010.8 |
| 20260508032600 | 62 | 78 | 2.0 | 13.0 | 0.00 | 0.00 | 0.00 | 57 | 1010.8 |
| 20260508032100 | 62 | 223 | 5.0 | 11.0 | 0.00 | 0.00 | 0.00 | 56 | 1010.8 |
| 20260508031558 | 63 | 175 | 8.0 | 10.0 | 0.00 | 0.00 | 0.00 | 56 | 1010.8 |
| 20260508031057 | 63 | 188 | 10.0 | 10.0 | 0.00 | 0.00 | 0.00 | 56 | 1010.8 |
| 20260508030556 | 63 | 164 | 0.0 | 10.0 | 0.00 | 0.00 | 0.00 | 56 | 1010.8 |
| 20260508030055 | 63 | 178 | 1.0 | 7.0 | 0.00 | 0.00 | 0.00 | 56 | 1010.6 |
| 20260508025554 | 63 | 227 | 1.0 | 11.0 | 0.00 | 0.00 | 0.00 | 55 | 1010.7 |
| 20260508025053 | 63 | 189 | 2.0 | 8.0 | 0.00 | 0.00 | 0.00 | 55 | 1010.6 |
| 20260508024552 | 63 | 161 | 0.0 | 10.0 | 0.00 | 0.00 | 0.00 | 55 | 1010.5 |
| 20260508024051 | 63 | 181 | 3.0 | 10.0 | 0.00 | 0.00 | 0.00 | 55 | 1010.4 |
| 20260508023550 | 63 | 220 | 1.0 | 10.0 | 0.00 | 0.00 | 0.00 | 54 | 1010.4 |
| 20260508023049 | 63 | 171 | 1.0 | 10.0 | 0.00 | 0.00 | 0.00 | 54 | 1010.4 |
| 20260508022548 | 64 | 192 | 1.0 | 6.0 | 0.00 | 0.00 | 0.00 | 54 | 1010.3 |
| 20260508022048 | 64 | 210 | 4.0 | 9.0 | 0.00 | 0.00 | 0.00 | 54 | 1010.2 |
| 20260508021546 | 64 | 205 | 4.0 | 11.0 | 0.00 | 0.00 | 0.00 | 53 | 1010.2 |
| 20260508021045 | 64 | 201 | 4.0 | 9.0 | 0.00 | 0.00 | 0.00 | 53 | 1010.1 |
| 20260508020544 | 64 | 191 | 0.0 | 10.0 | 0.00 | 0.00 | 0.00 | 53 | 1010.1 |
| 20260508020043 | 64 | 201 | 3.0 | 15.0 | 0.00 | 0.00 | 0.00 | 53 | 1010.1 |
| 20260508015542 | 64 | 177 | 3.0 | 7.0 | 0.00 | 0.00 | 0.00 | 52 | 1010.0 |
| 20260508015041 | 64 | 216 | 1.0 | 9.0 | 0.00 | 0.00 | 0.00 | 52 | 1010.0 |
| 20260508014540 | 65 | 168 | 2.0 | 7.0 | 0.00 | 0.00 | 0.00 | 52 | 1010.1 |
| 20260508014039 | 65 | 209 | 2.0 | 9.0 | 0.00 | 0.00 | 0.00 | 51 | 1010.0 |
| 20260508013538 | 65 | 163 | 0.0 | 6.0 | 0.00 | 0.00 | 0.00 | 51 | 1010.0 |
| 20260508013037 | 65 | 194 | 0.0 | 9.0 | 0.00 | 0.00 | 0.00 | 51 | 1010.0 |